FW9150 Weather Reports


time (UTC)temp
F
wind
direction
speed
knots
gust
knots
rain 1hr
in
rain 24hr
in
rain mn
in
humidity
%
barometer
mb
20260904040213 53 157 0.0 0.0 0.00 0.00 0.00 60 1018.5
20260904035214 54 157 0.0 0.0 0.00 0.00 0.00 59 1018.5
20260904034213 54 157 0.0 0.0 0.00 0.00 0.00 60 1018.5
20260904032214 54 157 0.0 1.7 0.00 0.00 0.00 60 1018.4
20260904030314 55 157 0.0 0.0 0.00 0.00 0.00 59 1018.5
20260904025313 55 157 0.0 0.0 0.00 0.00 0.00 60 1018.4
20260904024314 55 157 0.0 0.0 0.00 0.00 0.00 60 1018.5
20260904023314 56 158 0.9 2.6 0.00 0.00 0.00 60 1018.3
20260904022412 56 157 0.0 1.7 0.00 0.00 0.00 58 1018.5
20260904021430 56 194 0.0 2.6 0.00 0.00 0.00 58 1018.6
20260904015515 57 157 0.0 0.9 0.00 0.00 0.00 60 1018.7
20260904014513 57 217 0.9 2.6 0.00 0.00 0.00 59 1018.6
20260904013515 58 165 0.0 1.7 0.00 0.00 0.00 59 1018.6
20260904011514 58 174 0.0 2.6 0.00 0.00 0.00 57 1018.7
20260904010514 58 169 0.0 0.9 0.00 0.00 0.00 58 1018.8
20260904005529 58 225 0.0 0.9 0.00 0.00 0.00 59 1018.8
20260904004513 59 211 0.0 0.0 0.00 0.00 0.00 58 1018.8
20260904003528 59 165 1.7 3.5 0.00 0.00 0.00 57 1018.9
20260904002613 60 214 2.6 4.3 0.00 0.00 0.00 55 1019.0
20260904001617 60 161 1.7 3.5 0.00 0.00 0.00 54 1018.9
20260904000614 60 180 0.0 0.9 0.00 0.00 0.00 54 1019.0
20260903235613 61 157 0.9 2.6 0.00 0.00 0.00 55 1019.1
20260903233716 62 224 0.0 0.0 0.00 0.00 0.00 53 1019.3
20260903232813 62 176 2.6 5.2 0.00 0.00 0.00 53 1019.3
20260903231814 62 258 0.9 2.6 0.00 0.00 0.00 53 1019.3
20260903230829 62 196 3.5 4.3 0.00 0.00 0.00 50 1019.4
20260903225917 62 230 1.7 3.5 0.00 0.00 0.00 49 1019.4
20260903224915 63 196 0.9 1.7 0.00 0.00 0.00 49 1019.5
20260903223914 63 225 0.0 1.7 0.00 0.00 0.00 49 1019.5
20260903223013 63 168 3.5 6.1 0.00 0.00 0.00 49 1019.5
20260903222013 64 173 3.5 6.1 0.00 0.00 0.00 48 1019.5
20260903221013 64 154 2.6 5.2 0.00 0.00 0.00 48 1019.5
20260903220013 64 189 0.9 3.5 0.00 0.00 0.00 49 1019.6
20260903215016 64 222 3.5 6.1 0.00 0.00 0.00 48 1019.7
20260903214015 64 169 1.7 3.5 0.00 0.00 0.00 47 1019.5
20260903213015 64 235 0.9 3.5 0.00 0.00 0.00 48 1019.6
20260903212013 64 282 0.9 3.5 0.00 0.00 0.00 48 1019.5
20260903210113 64 181 0.9 2.6 0.00 0.00 0.00 47 1019.7
20260903205212 64 197 2.6 4.3 0.00 0.00 0.00 47 1019.7
20260903204214 64 177 1.7 3.5 0.00 0.00 0.00 48 1019.9
20260903202314 64 152 1.7 4.3 0.00 0.00 0.00 45 1019.9
20260903200312 64 180 0.0 0.0 0.00 0.00 0.00 44 1019.9
20260903195315 64 197 0.9 4.3 0.00 0.00 0.00 42 1020.3
20260903194313 64 181 0.9 1.7 0.00 0.00 0.00 40 1020.2
20260903192316 65 168 1.7 3.5 0.00 0.00 0.00 37 1020.4
20260903191413 65 160 0.9 1.7 0.00 0.00 0.00 36 1020.4
20260903190415 65 162 4.3 6.1 0.00 0.00 0.00 34 1020.6
20260903185414 64 135 1.7 2.6 0.00 0.00 0.00 32 1020.7
20260903184413 64 149 2.6 4.3 0.00 0.00 0.00 33 1020.7
20260903183513 65 179 4.3 7.8 0.00 0.00 0.00 32 1020.7
20260903182513 65 220 0.9 2.6 0.00 0.00 0.00 33 1020.8
20260903181516 64 246 2.6 3.5 0.00 0.00 0.00 32 1020.9
20260903180517 63 214 1.7 4.3 0.00 0.00 0.00 35 1020.9
20260903175614 62 221 1.7 2.6 0.00 0.00 0.00 34 1020.9
20260903174613 60 165 0.9 2.6 0.00 0.00 0.00 36 1021.0
20260903173712 60 151 0.9 4.3 0.00 0.00 0.00 38 1020.9
20260903172811 60 240 1.7 3.5 0.00 0.00 0.00 38 1021.1
20260903164914 58 205 0.9 3.5 0.00 0.00 0.00 45 1021.0
20260903163914 59 224 0.9 2.6 0.00 0.00 0.00 44 1021.2
20260903163011 58 174 1.7 3.5 0.00 0.00 0.00 45 1021.2
20260903162014 58 156 2.6 4.3 0.00 0.00 0.00 48 1021.3
20260903161014 58 178 0.0 1.7 0.00 0.00 0.00 51 1021.1
20260903160113 56 247 1.7 3.5 0.00 0.00 0.00 53 1021.2
20260903155114 55 167 0.0 0.0 0.00 0.00 0.00 59 1021.3
20260903154115 52 180 0.0 0.0 0.00 0.00 0.00 63 1021.3
20260903151213 48 180 0.0 0.0 0.00 0.00 0.00 70 1021.1
20260903150214 48 247 0.0 0.0 0.00 0.00 0.00 71 1021.0
20260903145212 47 247 0.0 0.0 0.00 0.00 0.00 71 1021.1
20260903143214 45 247 0.0 0.0 0.00 0.00 0.00 72 1020.9
20260903142216 45 247 0.0 0.0 0.00 0.00 0.00 73 1020.8
20260903141214 44 247 0.0 0.0 0.00 0.00 0.00 73 1020.9
20260903135218 45 247 0.0 0.0 0.00 0.00 0.00 71 1020.7
20260903134317 46 247 0.0 0.0 0.00 0.00 0.00 69 1020.7
20260903133317 46 247 0.0 0.0 0.00 0.00 0.00 69 1020.7
20260903132317 45 180 0.0 0.0 0.00 0.00 0.00 70 1020.6
20260903131319 45 180 0.0 0.0 0.00 0.00 0.00 71 1020.6
20260903130320 45 180 0.0 0.0 0.00 0.00 0.00 72 1020.7
20260903125418 45 180 0.0 0.0 0.00 0.00 0.00 71 1020.7
20260903124418 45 180 0.0 0.0 0.00 0.00 0.00 71 1020.9
20260903122418 45 180 0.0 0.0 0.00 0.00 0.00 71 1020.9
20260903120434 45 180 0.0 0.0 0.00 0.00 0.00 72 1021.1
20260903115518 45 180 0.0 0.0 0.00 0.00 0.00 71 1021.1
20260903114518 45 180 0.0 0.0 0.00 0.00 0.00 71 1021.2
20260903113617 45 180 0.0 0.0 0.00 0.00 0.00 71 1021.2
20260903112717 46 180 0.0 0.0 0.00 0.00 0.00 71 1021.2
20260903111719 46 180 0.0 0.0 0.00 0.00 0.00 72 1021.3
20260903110817 46 180 0.0 0.0 0.00 0.00 0.00 72 1021.3
20260903105820 46 180 0.0 0.0 0.00 0.00 0.00 72 1021.3
20260903104017 46 180 0.0 0.0 0.00 0.00 0.00 71 1021.4
20260903103018 46 180 0.0 0.0 0.00 0.00 0.00 70 1021.4
20260903102019 46 180 0.0 0.0 0.00 0.00 0.00 70 1021.6
20260903100017 46 180 0.0 0.0 0.00 0.00 0.00 70 1021.5
20260903095018 46 180 0.0 0.0 0.00 0.00 0.00 70 1021.5
20260903094021 47 180 0.0 0.0 0.00 0.00 0.00 71 1021.5
20260903093117 47 180 0.0 0.0 0.00 0.00 0.00 70 1021.6
20260903092121 47 180 0.0 0.0 0.00 0.00 0.00 70 1021.8
20260903090119 47 180 0.0 0.0 0.00 0.00 0.00 69 1021.8
20260903085134 47 180 0.0 0.0 0.00 0.00 0.00 70 1021.8
20260903084219 46 180 0.0 0.0 0.00 0.00 0.00 71 1021.9
20260903083219 46 180 0.0 0.0 0.00 0.00 0.00 72 1021.9
20260903082218 46 180 0.0 0.0 0.00 0.00 0.00 71 1022.0
20260903081219 46 180 0.0 0.0 0.00 0.00 0.00 72 1022.0
20260903080218 46 180 0.0 0.0 0.00 0.00 0.00 73 1021.9
20260903075218 45 180 0.0 0.0 0.00 0.00 0.00 74 1021.9
20260903074317 45 180 0.0 0.0 0.00 0.00 0.00 74 1021.8
20260903072418 45 180 0.0 0.0 0.00 0.00 0.00 74 1021.9
20260903071419 46 180 0.0 0.0 0.00 0.00 0.00 74 1021.9
20260903070517 46 180 0.0 0.0 0.00 0.00 0.00 74 1021.9
20260903064713 46 180 0.0 0.0 0.00 0.00 0.00 72 1022.0
20260903063715 46 180 0.0 0.0 0.00 0.00 0.00 73 1022.1
20260903062716 46 180 0.0 0.0 0.00 0.00 0.00 71 1022.1
20260903061816 46 180 0.0 0.0 0.00 0.00 0.00 70 1022.1
20260903060914 46 180 0.0 0.0 0.00 0.00 0.00 70 1022.1
20260903055916 46 180 0.0 0.0 0.00 0.00 0.00 69 1022.2
20260903052915 47 180 0.0 0.0 0.00 0.00 0.00 70 1022.4
20260903051914 47 180 0.0 0.0 0.00 0.00 0.00 68 1022.4
20260903050917 48 180 0.0 0.0 0.00 0.00 0.00 66 1022.6
20260903045916 48 180 0.0 0.0 0.00 0.00 0.00 67 1022.5
20260903044914 48 180 0.0 0.0 0.00 0.00 0.00 68 1022.7
20260903043917 48 180 0.0 0.0 0.00 0.00 0.00 66 1022.6
20260903042014 49 180 0.0 0.0 0.00 0.00 0.00 64 1022.7
20260903041015 50 180 0.0 0.0 0.00 0.00 0.00 64 1022.7